Wind_Speed
14 15 16 16 16 17 18 19 19 19 19 19 19 20 20 20 20 20 20 20 20 20 21 21 21 21 21 21 21 22 22 22 22 22 22 22 22 22 22 22 22 23 22
15 16 16 16 16 17 18 19 19 20 20 21 21 22 22 22 23 23 23 23 23 24 24 24 25 25 25 25 26 26 26 26 26 26 25 26 26 26 26 26 26 26 26
15 16 17 17 18 18 18 19 20 21 21 21 22 23 24 25 25 25 26 26 26 27 27 28 28 29 29 29 29 30 30 30 30 30 30 29 29 29 29 29 29 30 30
14 15 18 18 19 19 19 19 20 21 21 23 24 25 26 27 27 28 28 29 29 30 30 31 32 32 33 33 33 34 34 34 34 34 34 33 33 33 33 33 33 33 33
13 14 16 18 19 20 20 20 20 21 22 24 25 27 28 29 30 30 31 31 32 32 33 34 35 35 36 36 37 37 37 37 37 37 37 36 36 36 37 36 36 37 37
13 14 16 17 19 20 20 21 21 22 23 24 27 28 29 30 32 33 34 34 35 36 35 36 37 38 38 39 39 40 40 40 40 39 39 39 39 40 40 40 40 40 40
13 14 16 18 18 19 20 21 23 24 24 26 27 29 31 31 32 34 34 35 36 37 38 38 39 40 41 41 41 41 42 42 42 42 42 41 42 44 44 44 44 44 43
16 17 18 19 20 21 22 23 24 25 27 28 29 30 32 33 35 36 37 37 37 38 39 40 41 42 42 43 43 44 44 44 44 44 44 44 45 46 47 47 46 46 45
19 19 20 21 22 23 24 25 27 28 29 30 31 33 33 34 36 37 38 39 40 41 41 42 43 43 44 45 45 45 45 46 46 46 46 47 47 48 49 49 49 49 48
22 23 23 24 24 25 26 28 29 29 30 31 33 34 35 37 38 38 40 42 43 43 43 44 44 45 46 47 47 47 47 47 48 48 48 48 48 49 50 51 51 51 51
25 26 26 27 28 29 30 31 32 32 32 33 34 36 37 38 38 39 40 43 44 44 45 45 46 46 47 48 48 49 49 49 49 49 50 50 51 51 52 53 53 54 54
26 28 28 29 29 30 31 31 31 32 33 34 35 36 36 36 38 40 41 42 43 44 45 46 46 46 46 47 48 49 50 50 50 50 51 51 52 53 54 55 56 56 56
27 27 28 29 31 32 32 33 33 34 34 35 35 37 37 38 39 40 41 42 43 44 45 45 46 46 46 47 48 48 49 50 50 51 52 53 54 55 56 56 57 58 58
27 28 29 30 32 33 34 35 35 36 36 36 37 38 39 39 40 41 41 42 43 45 46 46 46 47 48 48 48 49 50 51 52 53 54 55 56 57 57 58 59 59 59
29 30 32 33 34 34 35 36 37 37 38 38 39 39 40 41 42 43 43 44 44 45 46 48 48 48 49 50 50 52 52 53 54 54 55 55 56 58 60 61 61 61 61
31 32 33 34 35 36 37 38 38 38 39 40 40 41 42 43 43 44 44 45 45 46 47 48 49 50 51 52 52 53 53 54 55 56 57 59 60 61 62 62 62 62 62
33 34 35 36 37 38 38 39 40 41 41 42 43 44 45 45 45 45 46 46 47 47 48 49 50 51 52 53 53 54 54 55 56 58 59 60 60 60 60 61 62 62 62
34 35 37 38 38 39 40 41 42 43 44 45 46 46 46 46 46 47 48 48 49 50 50 50 51 52 53 54 54 55 55 56 56 57 58 58 58 58 58 58 59 59 60
35 36 37 38 39 41 42 44 45 45 46 46 47 47 47 48 48 49 49 49 50 51 51 52 52 53 53 54 54 54 55 55 55 55 55 55 55 55 55 55 55 55 55
36 37 39 40 41 43 44 45 45 46 46 47 47 48 48 49 49 50 50 51 51 52 53 53 53 53 53 54 54 54 54 53 53 52 52 51 51 51 51 50 50 50 49
38 39 41 42 43 43 44 45 45 46 46 47 48 48 49 49 50 51 51 52 52 52 52 52 52 52 52 52 51 50 49 49 48 48 47 47 47 47 46 45 45 43 42
40 41 42 43 43 44 45 45 46 47 47 48 48 48 49 49 49 49 49 49 49 49 49 48 48 48 47 46 45 44 43 43 42 42 42 42 41 41 40 39 38 36 34
41 42 43 44 44 45 46 46 47 47 47 47 47 47 47 47 47 46 46 46 45 45 44 43 42 41 40 39 38 37 37 36 36 35 35 35 34 33 32 32 31 30 29
42 43 43 44 44 45 45 45 45 45 45 44 44 44 43 43 43 42 41 41 40 39 37 37 36 35 34 33 32 32 31 30 30 30 30 29 29 28 27 27 26 27 27
42 43 43 43 43 43 43 43 43 42 41 41 41 40 40 39 38 37 36 35 34 33 32 31 30 29 28 27 26 26 25 25 25 24 24 24 23 23 23 22 22 22 23
41 41 41 41 41 41 40 40 40 39 38 38 37 36 35 34 33 32 31 30 29 28 27 25 24 24 23 22 22 21 21 20 20 19 19 19 19 19 19 19 19 19 19
Wind_Direction
214 215 215 219 221 224 226 229 232 235 238 239 239 240 240 242 244 247 250 253 255 259 262 265 268 271 273 276 278 280 281 281 281 281 281 281 280 280 280 279 279 279 279
218 219 220 223 226 229 233 236 239 241 243 244 243 243 244 246 249 251 254 258 260 262 264 266 268 271 273 275 277 279 279 280 280 279 279 279 279 279 279 278 278 278 278
225 224 227 229 231 234 240 244 246 246 247 247 247 247 248 250 253 255 258 260 262 264 265 267 269 271 272 274 276 277 278 278 278 278 278 278 277 277 276 276 276 277 277
231 234 235 236 237 240 243 245 247 249 251 251 250 251 252 254 256 258 259 262 264 266 268 269 270 272 273 275 276 276 276 277 277 277 277 277 277 276 275 275 275 275 275
236 239 239 240 242 244 246 247 250 252 256 257 255 255 255 257 259 261 263 265 266 268 270 271 272 274 275 276 276 276 277 277 277 277 277 277 277 277 276 276 276 276 275
240 243 245 244 245 247 249 251 253 257 261 261 259 258 259 262 264 264 265 267 267 268 270 270 272 274 275 276 277 277 277 277 278 278 277 277 276 277 276 276 275 275 276
253 253 251 249 249 250 253 256 257 260 263 263 263 262 263 265 265 267 267 268 269 268 269 270 271 273 274 275 276 277 278 277 277 277 277 277 276 276 277 276 276 275 275
262 261 259 256 257 259 261 262 262 265 266 267 266 267 267 267 267 268 267 268 270 270 270 271 272 273 275 275 276 276 277 277 277 277 277 277 277 278 277 277 277 276 276
267 267 267 264 264 265 266 267 268 269 269 269 269 269 270 271 271 270 270 271 271 271 272 273 273 273 274 275 275 276 276 277 277 278 278 277 277 277 277 277 277 277 277
267 268 270 269 269 268 269 269 270 270 271 272 272 272 272 273 272 272 272 272 272 271 271 272 273 274 274 275 275 275 276 276 277 277 278 278 278 278 278 277 277 278 278
269 270 271 272 273 272 272 270 270 272 274 275 275 275 275 275 275 275 275 274 274 272 272 273 273 274 275 275 275 276 276 276 276 277 277 277 278 278 279 279 278 278 278
270 272 273 273 273 277 278 275 274 275 275 277 277 276 276 276 276 277 276 275 275 275 274 274 274 274 275 276 276 277 277 276 277 277 277 277 277 278 278 278 279 279 279
271 274 274 275 276 277 278 278 277 277 277 278 278 278 277 277 277 276 276 276 275 276 276 274 274 274 276 278 278 278 278 277 277 277 278 279 279 278 279 279 279 278 279
274 277 278 278 279 279 280 280 280 279 279 280 281 280 279 279 279 278 277 277 276 276 276 275 274 275 276 277 277 277 277 278 278 278 278 279 279 279 280 280 280 279 279
278 279 280 281 282 282 283 284 283 282 282 283 282 281 280 280 280 280 280 279 278 278 277 277 277 277 277 277 277 278 278 279 279 279 279 280 280 280 280 281 281 280 280
281 282 283 283 284 284 285 285 285 285 284 283 283 283 283 282 282 281 281 281 280 279 279 279 278 277 277 278 279 279 279 279 278 278 279 280 281 281 281 281 281 281 281
282 283 284 285 285 286 286 286 286 286 285 285 285 285 285 284 282 281 281 281 280 279 280 279 279 279 280 280 281 280 280 280 280 281 281 282 283 283 283 282 282 282 282
284 285 286 287 287 287 288 288 288 287 287 286 286 285 285 284 282 282 282 282 281 281 281 281 281 281 281 281 281 281 282 282 282 282 283 283 284 284 284 284 283 283 282
287 288 289 289 289 289 289 289 289 289 288 287 287 286 285 284 284 284 284 283 283 283 283 283 283 283 283 283 283 283 283 283 283 283 284 284 284 284 284 284 284 284 284
289 290 291 291 291 290 290 290 290 290 290 289 289 288 288 287 287 287 286 286 285 285 285 285 284 284 284 284 284 284 284 284 284 284 284 285 285 285 285 285 285 285 285
291 291 292 292 292 291 291 291 291 291 290 290 290 290 289 289 289 289 288 288 287 287 287 287 287 286 286 286 286 285 285 285 284 284 284 285 286 286 286 286 287 287 286
292 292 292 292 292 292 291 291 291 291 291 291 291 291 291 291 291 291 291 291 290 289 289 289 289 289 289 288 288 287 286 286 285 285 286 286 287 287 287 287 287 287 287
292 292 292 292 292 292 292 292 292 292 293 293 293 293 293 294 294 294 293 293 292 292 292 291 291 291 291 291 289 289 288 287 287 287 287 288 289 290 290 290 289 288 289
294 293 293 293 293 293 293 294 294 294 295 295 295 296 297 297 297 297 296 296 295 295 294 294 294 294 293 292 292 291 290 290 289 289 290 290 291 292 292 291 289 290 291
295 295 295 295 295 295 295 296 296 296 297 297 298 299 299 299 298 298 298 298 298 297 297 296 296 295 295 295 295 294 293 294 293 292 292 292 292 293 293 293 293 292 293
296 296 296 296 296 296 297 298 298 299 299 300 300 301 300 300 300 300 300 301 301 301 300 299 298 298 299 299 298 297 296 298 298 297 296 297 297 296 296 296 297 298 298
Height
5830 5832 5834 5836 5839 5841 5842 5844 5846 5848 5850 5852 5853 5855 5857 5858 5860 5861 5862 5863 5863 5864 5864 5865 5865 5865 5865 5864 5864 5863 5863 5862 5861 5860 5859 5858 5857 5856 5855 5854 5853 5852 5851
5828 5830 5832 5834 5836 5838 5840 5842 5843 5845 5846 5848 5849 5851 5852 5854 5855 5856 5857 5858 5858 5859 5859 5859 5859 5859 5859 5859 5858 5858 5857 5856 5856 5854 5853 5852 5851 5850 5849 5848 5847 5846 5845
5826 5828 5830 5832 5833 5835 5837 5839 5840 5841 5842 5843 5845 5846 5848 5849 5850 5851 5852 5852 5852 5853 5853 5853 5853 5852 5852 5852 5851 5851 5850 5849 5848 5847 5846 5845 5844 5843 5842 5840 5839 5838 5837
5824 5825 5827 5829 5830 5832 5833 5835 5836 5837 5838 5839 5840 5841 5842 5843 5844 5845 5845 5845 5846 5846 5846 5845 5845 5845 5844 5844 5843 5842 5841 5841 5840 5839 5838 5837 5836 5834 5833 5832 5831 5830 5829
5821 5822 5823 5825 5827 5828 5829 5830 5831 5832 5833 5833 5835 5835 5836 5837 5837 5838 5838 5838 5838 5838 5838 5837 5837 5836 5836 5835 5834 5833 5832 5832 5831 5830 5829 5828 5826 5825 5824 5823 5822 5821 5820
5818 5818 5819 5821 5822 5823 5824 5825 5826 5827 5827 5828 5829 5829 5830 5830 5830 5830 5830 5830 5830 5830 5829 5828 5828 5827 5826 5825 5824 5823 5822 5821 5820 5819 5819 5818 5816 5814 5813 5813 5812 5811 5811
5814 5814 5815 5816 5817 5818 5819 5820 5820 5821 5821 5821 5822 5822 5822 5822 5822 5822 5821 5821 5820 5820 5819 5818 5817 5817 5815 5814 5813 5812 5811 5810 5809 5808 5808 5806 5805 5803 5802 5801 5800 5799 5799
5809 5810 5810 5811 5812 5813 5813 5814 5814 5814 5814 5814 5814 5814 5814 5813 5812 5812 5812 5811 5811 5810 5808 5807 5807 5806 5805 5803 5802 5801 5800 5798 5797 5796 5796 5794 5793 5791 5789 5788 5787 5786 5786
5805 5805 5806 5806 5806 5807 5807 5807 5807 5807 5807 5807 5806 5806 5805 5804 5803 5802 5802 5801 5800 5799 5798 5797 5796 5795 5793 5791 5790 5789 5788 5787 5784 5783 5782 5781 5780 5778 5776 5774 5773 5771 5771
5799 5800 5800 5800 5800 5800 5800 5800 5799 5799 5798 5798 5797 5797 5796 5794 5793 5792 5791 5790 5789 5788 5787 5785 5784 5782 5781 5779 5778 5777 5775 5774 5772 5770 5769 5768 5766 5764 5762 5760 5758 5757 5756
5793 5793 5793 5793 5794 5793 5792 5791 5791 5790 5790 5789 5788 5787 5786 5784 5783 5781 5780 5778 5777 5775 5774 5773 5771 5769 5768 5766 5765 5763 5762 5760 5758 5757 5755 5753 5751 5749 5747 5745 5743 5741 5740
5787 5786 5786 5786 5786 5785 5783 5782 5782 5781 5780 5779 5778 5776 5775 5773 5772 5770 5768 5766 5764 5762 5761 5759 5757 5756 5754 5753 5751 5749 5747 5745 5744 5742 5741 5739 5737 5734 5732 5730 5727 5725 5724
5780 5779 5779 5778 5777 5776 5775 5773 5772 5771 5770 5768 5767 5765 5763 5762 5760 5758 5756 5754 5752 5750 5748 5746 5744 5743 5741 5739 5737 5735 5733 5730 5729 5727 5725 5723 5721 5718 5716 5714 5711 5709 5707
5772 5771 5771 5770 5768 5767 5765 5763 5762 5760 5759 5757 5755 5754 5752 5750 5748 5746 5744 5741 5739 5737 5735 5733 5731 5729 5727 5725 5722 5720 5717 5715 5713 5711 5709 5707 5704 5702 5699 5696 5694 5691 5690
5763 5762 5761 5760 5758 5757 5755 5753 5751 5749 5748 5746 5744 5741 5739 5737 5735 5733 5730 5728 5726 5724 5721 5719 5716 5714 5712 5710 5707 5704 5702 5699 5697 5695 5692 5690 5688 5685 5682 5679 5676 5673 5671
5754 5753 5752 5750 5748 5746 5744 5742 5740 5738 5736 5733 5731 5729 5726 5724 5722 5719 5717 5714 5712 5709 5707 5704 5702 5699 5697 5694 5691 5689 5686 5683 5681 5678 5676 5673 5670 5667 5663 5660 5657 5654 5652
5745 5743 5742 5740 5737 5735 5733 5730 5728 5726 5723 5721 5718 5715 5713 5710 5707 5705 5702 5700 5698 5695 5692 5689 5686 5683 5681 5678 5675 5672 5670 5667 5664 5661 5658 5655 5651 5648 5644 5641 5638 5635 5632
5735 5734 5731 5729 5727 5724 5721 5719 5716 5713 5710 5707 5704 5701 5698 5696 5693 5690 5687 5685 5682 5679 5676 5673 5670 5667 5664 5661 5658 5655 5653 5649 5646 5643 5640 5637 5633 5630 5627 5623 5620 5616 5613
5726 5723 5721 5718 5715 5712 5709 5706 5702 5699 5696 5693 5689 5686 5683 5680 5677 5674 5671 5668 5665 5662 5659 5656 5653 5650 5647 5644 5641 5638 5635 5632 5629 5626 5623 5619 5616 5613 5609 5606 5602 5599 5595
5715 5713 5710 5706 5703 5699 5696 5692 5689 5685 5682 5678 5674 5671 5667 5664 5661 5658 5655 5652 5649 5646 5643 5640 5636 5633 5630 5627 5624 5621 5618 5615 5612 5609 5606 5603 5599 5596 5593 5589 5586 5582 5579
5704 5701 5698 5694 5690 5687 5683 5679 5676 5672 5668 5664 5660 5656 5653 5649 5646 5642 5639 5635 5632 5629 5625 5622 5619 5616 5613 5610 5607 5604 5601 5598 5595 5592 5590 5587 5584 5580 5577 5574 5571 5567 5565
5693 5689 5686 5682 5678 5674 5670 5666 5662 5658 5654 5650 5646 5642 5638 5634 5630 5627 5623 5619 5616 5612 5609 5606 5603 5600 5597 5594 5591 5588 5585 5583 5580 5578 5575 5572 5569 5566 5563 5560 5558 5555 5553
5681 5677 5673 5669 5665 5661 5657 5653 5649 5645 5640 5636 5632 5628 5624 5620 5616 5612 5608 5605 5601 5598 5594 5591 5588 5585 5582 5579 5576 5574 5572 5569 5567 5565 5562 5560 5557 5554 5552 5549 5547 5545 5543
5669 5664 5660 5656 5652 5648 5644 5640 5635 5631 5627 5623 5619 5615 5611 5607 5603 5599 5595 5592 5588 5585 5581 5578 5576 5573 5570 5567 5565 5562 5560 5558 5556 5554 5552 5549 5547 5545 5543 5540 5539 5537 5535
5657 5652 5648 5644 5640 5635 5631 5627 5623 5619 5615 5611 5607 5603 5599 5595 5592 5588 5584 5580 5577 5574 5571 5568 5565 5563 5560 5558 5555 5553 5551 5549 5547 5545 5543 5541 5539 5537 5535 5533 5531 5529 5528
5645 5640 5636 5632 5628 5624 5619 5615 5611 5607 5604 5600 5596 5592 5589 5585 5582 5578 5574 5571 5568 5565 5562 5559 5557 5555 5552 5550 5548 5546 5544 5542 5540 5538 5536 5535 5533 5531 5529 5527 5525 5523 5522